Location: Potawatomi Wildlife Park
(41.2308°N, 86.1050°W)
Time: 20:01:22
(UTC-04:00)

Daily predictions for brighter satellites

Satellite Brightness Start Highest point End
(mag) Time Altitude Azimuth Time Altitude Azimuth Time Altitude Azimuth
Cosmos 1624 Rocket 4.0 19:51:38 10° NNW 19:56:53 79° ENE 20:02:04 10° SSE
USA 215 3.7 19:51:25 10° ENE 19:57:32 41° SE 20:03:37 10° SSW
OAO 3 Rocket 4.1 19:53:30 10° WSW 19:57:50 36° S 20:02:15 10° ESE
Aureole 2 Rocket 3.0 19:55:03 10° S 19:59:22 61° ESE 20:03:38 10° NNE
Cosmos 1812 Rocket 4.4 19:55:08 10° SSW 19:59:23 57° W 20:03:42 10° N
Cosmos 1484 Rocket 2.9 19:57:32 10° S 20:01:22 84° W 20:05:17 10° NNW
SAR-Lupe-1 4.2 19:58:50 10° SSE 20:02:17 53° ENE 20:05:47 10° N
SL-19 R/B 4.4 19:57:17 10° SSE 20:02:53 78° ENE 20:08:50 10° NNW
Cosmos 1766 Rocket 4.3 20:00:05 10° NNE 20:03:59 31° ENE 20:07:51 10° SE
CZ-4C R/B 3.3 20:02:10 10° WSW 20:07:20 48° NW 20:13:10 10° NNE
ALOS 3.5 20:05:45 10° ESE 20:09:16 22° ENE 20:12:47 10° NNE
Cosmos 2237 Rocket 3.4 20:04:41 10° SW 20:10:10 48° WNW 20:15:39 10° NNE
Cosmos 2034 Rocket 4.4 20:05:01 10° SSE 20:10:48 41° E 20:16:40 10° NNE
BREEZE-M TANK 4.1 19:58:16 10° WNW 20:10:52 56° SW 20:14:30 10° SE
ATLAS 3B R/B 4.5 20:04:59 10° WSW 20:11:47 34° NW 20:18:24 10° NNE
Helios 1B rocket 3.2 20:08:37 10° NE 20:12:18 31° E 20:15:58 10° SSE
Cosmos 1464 Rocket 4.1 20:06:29 10° S 20:12:34 57° E 20:18:37 10° NNE
Meteor 1-29 4.1 20:09:57 10° NE 20:12:49 23° E 20:15:38 10° SSE
ATLAS 5 CENTAUR R/B 2.1 20:09:16 10° SSW 20:13:48 48° ESE 20:18:42 10° NE
Atlas Centaur 2 4.3 20:07:37 10° WSW 20:14:53 32° SSW 20:21:52 10° SE
Cosmos 1076 Rocket 3.7 20:11:08 10° N 20:15:22 50° E 20:19:36 10° SSE
SeaSat 1 4.1 20:15:18 10° ENE 20:17:37 13° ESE 20:19:55 10° SE
Cosmos 1766 3.3 20:17:28 10° S 20:21:26 88° E 20:25:27 10° N
Cosmos-2242 3.6 20:17:35 10° SSE 20:21:32 35° E 20:25:32 10° NNE
CZ-4B DEB 4.2 20:23:55 16° ESE 20:25:21 21° ENE 20:27:52 10° NNE
Cosmos 1452 Rocket 3.6 20:21:07 10° NNW 20:26:18 56° ENE 20:31:27 10° SE
SL-16 R/B 2.5 20:24:30 10° SSW 20:30:11 74° WNW 20:35:54 10° NNE
NOSS 3-2 (A) 3.6 20:24:21 10° SW 20:30:25 84° NW 20:37:04 10° NE
FREGAT/IRIS 2.7 20:28:04 10° S 20:31:10 83° W 20:34:15 10° NNW
ATLAS CENTAUR R/B 3.4 20:29:30 10° NW 20:33:03 27° WSW 20:36:20 10° S
CZ-2D R/B 4.3 20:33:52 19° ESE 20:35:41 26° ENE 20:38:59 10° NNE
Cosmos 1408 Rocket 3.4 20:33:29 10° N 20:37:52 80° E 20:42:11 10° S
SL-8 R/B 4.3 20:35:09 10° SSW 20:39:31 37° SE 20:42:04 21° E
Cosmos 1544 3.4 20:38:24 10° SSE 20:41:55 42° E 20:45:29 10° NNE
METEOR-M 4.1 20:36:55 10° SSE 20:42:17 90° WSW 20:47:40 10° NNW
Cosmos 1378 4.4 20:41:44 10° NNW 20:45:18 43° W 20:48:50 10° SSW
Gbstr 26 Del rocket 4.4 20:41:54 10° S 20:45:23 22° SE 20:45:51 22° ESE
Cosmos 1953 2.2 20:43:01 10° S 20:47:00 79° E 20:51:00 10° N
Cosmos 1420 Rocket 4.2 20:43:15 10° N 20:48:24 49° ENE 20:52:00 19° SE
H-2A R/B 3.2 20:50:10 28° ESE 20:51:38 39° ENE 20:55:16 10° N
Cosmos 1805 3.2 20:47:50 10° S 20:51:46 89° ESE 20:55:44 10° N
FENGYUN 3A 3.7 20:48:19 10° SSE 20:53:34 58° ENE 20:58:51 10° N
Resurs 1-3 3.5 20:50:46 10° SSE 20:55:09 86° ENE 20:59:34 10° NNW
Resurs 01 Rocket 1.9 20:51:36 10° S 20:56:02 72° WSW 21:00:29 10° NNW
ASTEX 1 3.5 20:53:30 10° NNE 20:58:18 52° E 21:03:03 10° S
Abrixas 3.2 20:57:37 10° SW 21:00:02 38° S 21:00:02 38° S
Cosmos 1346 2.8 20:58:00 10° N 21:00:59 74° E 21:01:23 60° SE
Spot 2 Rocket 4.0 20:59:45 10° S 21:04:43 61° WSW 21:09:43 10° NNW
CENTAUR R/B 2.9 20:59:22 10° S 21:04:50 38° ESE 21:10:54 10° NE
Cosmos 1269 Rocket 3.9 21:00:23 10° S 21:05:37 68° ESE 21:10:53 10° NNE
Cosmos 1743 Rocket 3.4 21:01:49 10° N 21:06:17 77° E 21:09:33 18° SSE
Helios 1A 3.5 21:02:44 10° S 21:06:53 59° W 21:11:04 10° NNW
Cosmos 1048 Rocket 4.0 21:02:18 10° S 21:07:31 60° ESE 21:12:41 10° NNE
NOSS 3-2 (C) 4.1 21:02:50 10° SW 21:08:51 59° NW 21:15:27 10° NNE
Cosmos 2369 Rocket 2.6 21:07:41 10° N 21:13:03 42° ENE 21:14:17 37° E
Cosmos 1943 3.5 21:08:14 10° S 21:13:28 41° ESE 21:18:43 10° NE
Cosmos 1470 2.6 21:13:50 57° SE 21:14:14 61° E 21:18:05 10° NNE
Envisat 4.1 21:16:19 26° NE 21:16:19 26° NE 21:19:55 10° N
Cosmos 1943 Rocket 3.6 21:12:24 10° N 21:16:38 21° NE 21:16:39 21° NE
Cosmos 724 4.5 21:11:31 10° SW 21:17:26 75° WNW 21:23:33 10° NNE
Cosmos 1603 3.8 21:11:47 10° SSW 21:17:31 80° WNW 21:23:19 10° NNE
GPS 2-04 Rocket1 4.3 21:17:55 10° SW 21:19:40 20° SSW 21:19:40 20° SSW
Nadezhda 4 Rocket 4.0 21:14:39 10° N 21:20:57 82° W 21:27:10 10° S
Cosmos 1733 4.4 21:24:29 30° NNE 21:24:29 30° NNE 21:26:34 10° NNE
GP-B 3.2 21:19:33 10° N 21:23:33 54° ENE 21:23:33 54° ENE
Cosmos 1655 Rocket 4.3 21:20:15 10° N 21:26:06 41° ENE 21:26:30 40° E
Cosmos 1092 Rocket 3.8 21:21:45 10° N 21:27:59 84° E 21:32:27 20° S
Cosmos 2142 Rocket 4.4 21:26:55 10° S 21:33:11 66° E 21:39:32 10° NNE
ISS -1.0 21:32:22 10° SW 21:33:16 17° SW 21:33:16 17° SW
Cosmos 1674 3.1 21:32:24 10° NNW 21:36:15 62° W 21:36:37 59° SW
USA 215 3.7 21:34:15 10° NE 21:40:40 60° NW 21:47:03 10° WSW
OAO 3 Rocket 4.1 21:36:31 10° WSW 21:40:37 36° SSW 21:40:37 36° SSW
Cosmos 2026 Rocket 3.9 21:36:23 10° N 21:42:26 61° E 21:42:57 59° ESE
Cosmos 1634 Rocket 3.8 21:36:32 10° S 21:42:47 83° E 21:49:01 10° N
H-2A R/B 4.4 21:48:55 15° NNE 21:48:55 15° NNE 21:49:52 10° N
ALOS 3.5 21:42:33 13° SSW 21:46:26 39° W 21:50:50 10° NNW
Meteor 1-11 4.3 21:42:08 10° N 21:47:39 61° ENE 21:47:39 61° ENE
ERS-1 Rocket 3.3 21:55:08 53° NNE 21:55:08 53° NNE 21:59:07 10° N
SeaSat 1 2.5 21:50:39 10° NNE 21:55:37 78° WNW 22:00:32 10° SSW
ATLAS 5 CENTAUR R/B 3.9 21:54:37 10° W 21:58:44 26° NW 22:03:10 10° NNE
Cosmos 1110 Rocket 4.5 21:54:24 10° NNW 21:58:36 52° NNE 21:58:36 52° NNE
Cosmos 2195 Rocket 4.5 21:57:52 10° N 22:04:12 81° W 22:05:32 58° S
Cosmos 839 Rocket 4.3 22:16:59 10° NW 22:24:28 68° WSW 22:24:46 67° SW
CENTAUR R/B 3.6 22:49:33 10° WSW 22:55:23 42° NW 23:01:58 10° NNE
Cosmos 2369 Rocket 3.9 22:52:06 10° NW 22:56:07 27° W 22:56:07 27° W
Cosmos 1943 Rocket 3.8 22:55:18 10° NNW 22:58:11 31° NW 22:58:11 31° NW
